Time,TemperatureF,DewpointF,PressureIn,WindDirection,WindDirectionDegrees,WindSpeedMPH,WindSpeedGustMPH,Humidity,HourlyPrecipIn,Conditions,Clouds,dailyrainin,SoftwareType,DateUTC
2014-12-17 00:00:00,60.1,57.2,30.14,SW,229,0.0,0.0,90,0.00,,,0.00,Wunderground v.1.15,2014-12-17 05:00:00,
2014-12-17 00:10:00,59.6,57.0,30.14,SW,229,0.0,0.0,91,0.00,,,0.00,Wunderground v.1.15,2014-12-17 05:10:00,
2014-12-17 00:20:00,59.2,56.3,30.14,SW,229,0.0,0.0,90,0.00,,,0.00,Wunderground v.1.15,2014-12-17 05:20:00,
2014-12-17 00:30:00,58.7,56.1,30.14,SW,229,0.0,0.0,91,0.00,,,0.00,Wunderground v.1.15,2014-12-17 05:30:00,
2014-12-17 00:40:00,58.6,56.3,30.14,SW,229,0.0,0.0,92,0.00,,,0.00,Wunderground v.1.15,2014-12-17 05:40:00,
2014-12-17 00:50:00,58.1,55.8,30.14,SW,229,0.0,0.0,92,0.00,,,0.00,Wunderground v.1.15,2014-12-17 05:50:00,
2014-12-17 01:00:00,58.0,56.0,30.14,SW,229,0.0,0.0,93,0.00,,,0.00,Wunderground v.1.15,2014-12-17 06:00:00,
2014-12-17 01:10:00,58.0,56.0,30.14,SW,229,0.0,0.0,93,0.00,,,0.00,Wunderground v.1.15,2014-12-17 06:10:00,
2014-12-17 01:20:00,57.6,55.6,30.14,SW,229,0.0,0.0,93,0.00,,,0.00,Wunderground v.1.15,2014-12-17 06:20:00,
2014-12-17 01:30:00,56.9,54.9,30.14,SW,229,0.0,0.0,93,0.00,,,0.00,Wunderground v.1.15,2014-12-17 06:30:00,
2014-12-17 01:40:00,56.9,54.9,30.14,SW,229,0.0,0.0,93,0.00,,,0.00,Wunderground v.1.15,2014-12-17 06:40:00,
2014-12-17 01:50:00,56.9,55.2,30.15,SW,229,0.0,0.0,94,0.00,,,0.00,Wunderground v.1.15,2014-12-17 06:50:00,
2014-12-17 02:00:00,56.2,54.2,30.15,SW,229,0.0,0.0,93,0.00,,,0.00,Wunderground v.1.15,2014-12-17 07:00:00,
2014-12-17 02:10:00,55.6,53.6,30.15,SW,229,0.0,0.0,93,0.00,,,0.00,Wunderground v.1.15,2014-12-17 07:10:00,
2014-12-17 02:20:00,54.7,52.4,30.14,SW,229,0.0,0.0,92,0.00,,,0.00,Wunderground v.1.15,2014-12-17 07:20:00,
2014-12-17 02:30:00,54.1,52.1,30.14,SW,229,0.0,0.0,93,0.00,,,0.00,Wunderground v.1.15,2014-12-17 07:30:00,
2014-12-17 02:40:00,53.5,51.2,30.14,SW,229,0.0,0.0,92,0.00,,,0.00,Wunderground v.1.15,2014-12-17 07:40:00,
2014-12-17 02:50:00,52.8,50.5,30.14,SW,229,0.0,0.0,92,0.00,,,0.00,Wunderground v.1.15,2014-12-17 07:50:00,
2014-12-17 03:00:00,52.3,50.0,30.14,SW,229,0.0,0.0,92,0.00,,,0.00,Wunderground v.1.15,2014-12-17 08:00:00,
2014-12-17 03:10:00,52.2,50.2,30.14,SW,229,0.0,0.0,93,0.00,,,0.00,Wunderground v.1.15,2014-12-17 08:10:00,
2014-12-17 03:20:00,51.9,49.9,30.14,SW,229,0.0,0.0,93,0.00,,,0.00,Wunderground v.1.15,2014-12-17 08:20:00,
2014-12-17 03:30:00,51.0,49.0,30.14,SW,229,0.0,0.0,93,0.00,,,0.00,Wunderground v.1.15,2014-12-17 08:30:00,
2014-12-17 03:40:00,50.7,48.7,30.14,SW,229,0.0,0.0,93,0.00,,,0.00,Wunderground v.1.15,2014-12-17 08:40:00,
2014-12-17 03:50:00,50.5,48.8,30.14,SW,229,0.0,0.0,94,0.00,,,0.00,Wunderground v.1.15,2014-12-17 08:50:00,
2014-12-17 04:00:00,50.7,49.0,30.14,SW,229,0.0,0.0,94,0.00,,,0.00,Wunderground v.1.15,2014-12-17 09:00:00,
2014-12-17 04:10:00,49.9,48.0,30.14,SW,229,0.0,0.0,93,0.00,,,0.00,Wunderground v.1.15,2014-12-17 09:10:00,
2014-12-17 04:20:00,49.5,47.8,30.14,SW,229,0.0,0.0,94,0.00,,,0.00,Wunderground v.1.15,2014-12-17 09:20:00,
2014-12-17 04:30:00,49.6,48.2,30.14,SW,229,0.0,0.0,95,0.00,,,0.00,Wunderground v.1.15,2014-12-17 09:30:00,
2014-12-17 04:40:00,50.1,48.7,30.14,SW,229,0.0,0.0,95,0.00,,,0.00,Wunderground v.1.15,2014-12-17 09:40:00,
2014-12-17 04:50:00,50.7,49.9,30.14,SW,229,0.0,0.0,97,0.00,,,0.00,Wunderground v.1.15,2014-12-17 09:50:00,
2014-12-17 05:00:00,49.1,47.4,30.14,SW,229,0.0,0.0,94,0.00,,,0.00,Wunderground v.1.15,2014-12-17 10:00:00,
2014-12-17 05:10:00,48.9,47.5,30.14,SW,229,0.0,0.0,95,0.00,,,0.00,Wunderground v.1.15,2014-12-17 10:10:00,
2014-12-17 05:20:00,48.8,47.2,30.14,SW,229,0.0,0.0,94,0.00,,,0.00,Wunderground v.1.15,2014-12-17 10:20:00,
2014-12-17 05:30:00,47.9,46.3,30.14,SW,229,0.0,0.0,94,0.00,,,0.00,Wunderground v.1.15,2014-12-17 10:30:00,
2014-12-17 05:40:00,47.6,46.2,30.14,SW,229,0.0,0.0,95,0.00,,,0.00,Wunderground v.1.15,2014-12-17 10:40:00,
2014-12-17 05:50:00,47.7,46.1,30.15,SW,229,0.0,0.0,94,0.00,,,0.00,Wunderground v.1.15,2014-12-17 10:50:00,
2014-12-17 06:00:00,47.1,45.5,30.15,SW,229,0.0,0.0,94,0.00,,,0.00,Wunderground v.1.15,2014-12-17 11:00:00,
2014-12-17 06:10:00,46.4,44.8,30.15,SW,229,0.0,0.0,94,0.00,,,0.00,Wunderground v.1.15,2014-12-17 11:10:00,
2014-12-17 06:20:00,46.0,44.4,30.15,SW,229,0.0,0.0,94,0.00,,,0.00,Wunderground v.1.15,2014-12-17 11:20:00,
2014-12-17 06:30:00,45.7,44.4,30.15,SW,229,0.0,0.0,95,0.00,,,0.00,Wunderground v.1.15,2014-12-17 11:30:00,
2014-12-17 06:40:00,45.8,44.4,30.15,SW,229,0.0,0.0,95,0.00,,,0.00,Wunderground v.1.15,2014-12-17 11:40:00,
2014-12-17 06:50:00,46.0,44.6,30.16,SW,229,0.0,0.0,95,0.00,,,0.00,Wunderground v.1.15,2014-12-17 11:50:00,
2014-12-17 07:00:00,46.5,45.4,30.17,SW,229,0.0,0.0,96,0.00,,,0.00,Wunderground v.1.15,2014-12-17 12:00:00,
2014-12-17 07:10:00,45.7,44.4,30.17,SW,229,0.0,0.0,95,0.00,,,0.00,Wunderground v.1.15,2014-12-17 12:10:00,
2014-12-17 07:20:00,45.7,44.6,30.17,SW,229,0.0,0.0,96,0.00,,,0.00,Wunderground v.1.15,2014-12-17 12:20:00,
2014-12-17 07:30:00,45.2,44.1,30.17,SW,229,0.0,0.0,96,0.00,,,0.00,Wunderground v.1.15,2014-12-17 12:30:00,
2014-12-17 07:40:00,45.7,44.9,30.17,SW,229,0.0,0.0,97,0.00,,,0.00,Wunderground v.1.15,2014-12-17 12:40:00,
2014-12-17 07:50:00,46.4,45.6,30.18,NW,323,0.0,0.0,97,0.00,,,0.00,Wunderground v.1.15,2014-12-17 12:50:00,
2014-12-17 08:00:00,46.2,45.4,30.18,NW,323,0.0,0.0,97,0.00,,,0.00,Wunderground v.1.15,2014-12-17 13:00:00,
2014-12-17 08:10:00,47.0,46.5,30.18,NW,323,0.0,0.0,98,0.00,,,0.00,Wunderground v.1.15,2014-12-17 13:10:00,
2014-12-17 08:20:00,48.3,48.0,30.18,NNW,347,0.0,0.0,99,0.00,,,0.00,Wunderground v.1.15,2014-12-17 13:20:00,
2014-12-17 08:30:00,49.6,49.3,30.18,North,355,0.0,0.0,99,0.00,,,0.00,Wunderground v.1.15,2014-12-17 13:30:00,
2014-12-17 08:40:00,50.4,50.1,30.18,NNW,348,0.0,0.0,99,0.00,,,0.00,Wunderground v.1.15,2014-12-17 13:40:00,
2014-12-17 08:50:00,50.8,50.5,30.19,NNE,32,0.0,0.0,99,0.00,,,0.00,Wunderground v.1.15,2014-12-17 13:50:00,
2014-12-17 09:00:00,51.3,50.8,30.19,North,355,0.0,0.0,98,0.00,,,0.00,Wunderground v.1.15,2014-12-17 14:00:00,
2014-12-17 09:10:00,51.6,50.5,30.19,North,5,0.0,2.0,96,0.00,,,0.00,Wunderground v.1.15,2014-12-17 14:10:00,
2014-12-17 09:20:00,52.2,49.9,30.20,North,355,0.0,3.0,92,0.00,,,0.00,Wunderground v.1.15,2014-12-17 14:20:00,
2014-12-17 09:30:00,53.2,49.7,30.20,NNE,21,1.0,1.0,88,0.00,,,0.00,Wunderground v.1.15,2014-12-17 14:30:00,
2014-12-17 09:40:00,54.1,48.7,30.20,NE,34,0.0,4.0,82,0.00,,,0.00,Wunderground v.1.15,2014-12-17 14:40:00,
2014-12-17 09:50:00,55.0,48.6,30.21,NNE,22,1.0,1.0,79,0.00,,,0.00,Wunderground v.1.15,2014-12-17 14:50:00,
2014-12-17 10:00:00,56.0,48.9,30.21,NNW,333,1.0,1.0,77,0.00,,,0.00,Wunderground v.1.15,2014-12-17 15:00:00,
2014-12-17 10:10:00,57.0,48.4,30.21,NE,40,0.0,2.0,73,0.00,,,0.00,Wunderground v.1.15,2014-12-17 15:10:00,
2014-12-17 10:20:00,57.8,48.8,30.21,NE,38,1.0,1.0,72,0.00,,,0.00,Wunderground v.1.15,2014-12-17 15:20:00,
2014-12-17 10:30:00,58.9,49.5,30.20,NNW,329,0.0,0.0,71,0.00,,,0.00,Wunderground v.1.15,2014-12-17 15:30:00,
2014-12-17 10:40:00,59.6,48.6,30.20,ENE,63,0.0,0.0,67,0.00,,,0.00,Wunderground v.1.15,2014-12-17 15:40:00,
2014-12-17 10:50:00,59.9,47.7,30.21,ENE,59,0.0,0.0,64,0.00,,,0.00,Wunderground v.1.15,2014-12-17 15:50:00,
2014-12-17 11:00:00,60.7,48.4,30.20,ENE,59,0.0,0.0,64,0.00,,,0.00,Wunderground v.1.15,2014-12-17 16:00:00,
2014-12-17 11:10:00,61.5,48.8,30.20,NE,36,0.0,0.0,63,0.00,,,0.00,Wunderground v.1.15,2014-12-17 16:10:00,
2014-12-17 11:20:00,62.4,49.2,30.19,NE,36,0.0,0.0,62,0.00,,,0.00,Wunderground v.1.15,2014-12-17 16:20:00,
2014-12-17 11:30:00,63.1,48.5,30.18,SW,227,0.0,1.0,59,0.00,,,0.00,Wunderground v.1.15,2014-12-17 16:30:00,
2014-12-17 11:40:00,64.0,47.5,30.18,SW,221,1.0,1.0,55,0.00,,,0.00,Wunderground v.1.15,2014-12-17 16:40:00,
2014-12-17 11:50:00,65.0,47.4,30.17,WSW,241,0.0,0.0,53,0.00,,,0.00,Wunderground v.1.15,2014-12-17 16:50:00,
2014-12-17 12:00:00,65.6,47.5,30.17,SSW,210,1.0,1.0,52,0.00,,,0.00,Wunderground v.1.15,2014-12-17 17:00:00,
2014-12-17 12:10:00,66.3,47.6,30.17,SW,227,0.0,0.0,51,0.00,,,0.00,Wunderground v.1.15,2014-12-17 17:10:00,
2014-12-17 12:20:00,67.3,46.4,30.16,SW,223,0.0,2.0,47,0.00,,,0.00,Wunderground v.1.15,2014-12-17 17:20:00,
2014-12-17 12:30:00,67.6,46.1,30.15,NNW,333,1.0,1.0,46,0.00,,,0.00,Wunderground v.1.15,2014-12-17 17:30:00,
2014-12-17 12:40:00,68.6,46.4,30.15,SW,229,0.0,0.0,45,0.00,,,0.00,Wunderground v.1.15,2014-12-17 17:40:00,
2014-12-17 12:50:00,69.1,45.7,30.14,SW,224,1.0,1.0,43,0.00,,,0.00,Wunderground v.1.15,2014-12-17 17:50:00,
2014-12-17 13:00:00,69.4,45.9,30.13,SW,224,2.0,5.0,43,0.00,,,0.00,Wunderground v.1.15,2014-12-17 18:00:00,
2014-12-17 13:10:00,70.1,46.6,30.13,SW,219,2.0,3.0,43,0.00,,,0.00,Wunderground v.1.15,2014-12-17 18:10:00,
2014-12-17 13:20:00,70.4,46.8,30.12,SW,220,0.0,0.0,43,0.00,,,0.00,Wunderground v.1.15,2014-12-17 18:20:00,
2014-12-17 13:30:00,70.4,45.6,30.11,South,185,1.0,1.0,41,0.00,,,0.00,Wunderground v.1.15,2014-12-17 18:30:00,
2014-12-17 13:40:00,70.4,45.6,30.11,SW,215,2.0,3.0,41,0.00,,,0.00,Wunderground v.1.15,2014-12-17 18:40:00,
2014-12-17 13:50:00,71.3,47.0,30.11,WNW,301,2.0,2.0,42,0.00,,,0.00,Wunderground v.1.15,2014-12-17 18:50:00,
2014-12-17 14:00:00,71.5,46.6,30.11,SW,228,1.0,1.0,41,0.00,,,0.00,Wunderground v.1.15,2014-12-17 19:00:00,
2014-12-17 14:10:00,71.5,46.6,30.11,SSW,209,3.0,3.0,41,0.00,,,0.00,Wunderground v.1.15,2014-12-17 19:10:00,
2014-12-17 14:20:00,72.0,45.7,30.10,SW,235,0.0,4.0,39,0.00,,,0.00,Wunderground v.1.15,2014-12-17 19:20:00,
2014-12-17 14:30:00,72.7,46.3,30.09,West,260,0.0,0.0,39,0.00,,,0.00,Wunderground v.1.15,2014-12-17 19:30:00,
2014-12-17 14:40:00,72.7,46.3,30.09,SW,220,1.0,1.0,39,0.00,,,0.00,Wunderground v.1.15,2014-12-17 19:40:00,
2014-12-17 14:50:00,73.0,46.6,30.09,NNW,340,1.0,1.0,39,0.00,,,0.00,Wunderground v.1.15,2014-12-17 19:50:00,
2014-12-17 15:00:00,73.3,46.8,30.09,SW,227,0.0,0.0,39,0.00,,,0.00,Wunderground v.1.15,2014-12-17 20:00:00,
2014-12-17 15:10:00,73.2,46.1,30.09,SW,215,1.0,1.0,38,0.00,,,0.00,Wunderground v.1.15,2014-12-17 20:10:00,
2014-12-17 15:20:00,73.0,45.9,30.09,SSW,213,0.0,2.0,38,0.00,,,0.00,Wunderground v.1.15,2014-12-17 20:20:00,
2014-12-17 15:30:00,72.7,45.6,30.09,SW,221,1.0,1.0,38,0.00,,,0.00,Wunderground v.1.15,2014-12-17 20:30:00,
2014-12-17 15:40:00,72.8,45.7,30.09,WNW,300,0.0,3.0,38,0.00,,,0.00,Wunderground v.1.15,2014-12-17 20:40:00,
2014-12-17 15:50:00,72.3,46.6,30.09,NW,304,1.0,1.0,40,0.00,,,0.00,Wunderground v.1.15,2014-12-17 20:50:00,
2014-12-17 16:00:00,71.8,46.2,30.10,NW,319,0.0,0.0,40,0.00,,,0.00,Wunderground v.1.15,2014-12-17 21:00:00,
2014-12-17 16:10:00,70.9,47.3,30.10,North,355,0.0,0.0,43,0.00,,,0.00,Wunderground v.1.15,2014-12-17 21:10:00,
2014-12-17 16:20:00,69.8,47.5,30.10,WNW,302,0.0,0.0,45,0.00,,,0.00,Wunderground v.1.15,2014-12-17 21:20:00,
2014-12-17 16:30:00,69.3,47.6,30.10,North,349,0.0,0.0,46,0.00,,,0.00,Wunderground v.1.15,2014-12-17 21:30:00,